When you browse on this site, cookies collect data to enhance your experience and personalize the content and advertising you see.
Visit our Privacy Policy to learn more. By continuing to use the site, you agree to this use of cookies and data.
  • In Romania
  • List of Countries
  • For 7 days
  • Water Temperature
  • Satellite Maps
  • Weather Map
  • Weather Widgets
  • user-avatar
    Login

    Hourly Weather Kranston

    Today, 23 February, Saturday

    Time Temperature Precipitation Wind Pressure Humidity
    00:00 0°C° 0 mm 1 mps 771 mmHg 89%
    01:00 -1°C° 0 mm 1 mps 772 mmHg 89%
    02:00 -1°C° 0 mm 1 mps 772 mmHg 89%
    03:00 -1°C° 0 mm 1 mps 772 mmHg 88%
    04:00 -1°C° 0 mm 1 mps 772 mmHg 87%
    05:00 -1°C° 0 mm 1 mps 772 mmHg 85%
    06:00 -1°C° 0 mm 1 mps 772 mmHg 84%
    07:00 -1°C° 0 mm 1 mps 773 mmHg 82%
    08:00 +1°C° 0 mm 1 mps 773 mmHg 74%
    09:00 +3°C° 0 mm 1 mps 773 mmHg 66%
    10:00 +5°C° 0 mm 1 mps 773 mmHg 58%
    11:00 +5°C° 0 mm 1 mps 772 mmHg 57%
    12:00 +6°C° 0 mm 1 mps 772 mmHg 57%
    13:00 +7°C° 0 mm 1 mps 771 mmHg 56%
    14:00 +5°C° 0 mm 2 mps 771 mmHg 61%
    15:00 +5°C° 0 mm 2 mps 771 mmHg 66%
    16:00 +4°C° 0 mm 2 mps 770 mmHg 71%
    17:00 +3°C° 0 mm 2 mps 770 mmHg 77%
    18:00 +3°C° 0 mm 1 mps 770 mmHg 82%
    19:00 +1°C° 0 mm 1 mps 770 mmHg 88%
    20:00 +2°C° 0 mm 1 mps 769 mmHg 88%
    21:00 +2°C° 0 mm 1 mps 769 mmHg 88%
    22:00 +2°C° 0 mm 1 mps 769 mmHg 88%
    23:00 +2°C° 0 mm 1 mps 768 mmHg 89%

    Tomorrow, 24 February, Sunday

    Time Temperature Precipitation Wind Pressure Humidity
    00:00 +3°C° 0 mm 1 mps 767 mmHg 91%
    01:00 +3°C° 0 mm 1 mps 767 mmHg 92%
    02:00 +3°C° 0.1 mm 1 mps 766 mmHg 92%
    03:00 +2°C° 0.1 mm 2 mps 765 mmHg 93%
    04:00 +3°C° 0.1 mm 2 mps 764 mmHg 93%
    05:00 +4°C° 0.2 mm 2 mps 763 mmHg 93%
    06:00 +4°C° 0.2 mm 3 mps 762 mmHg 94%
    07:00 +4°C° 0.2 mm 3 mps 760 mmHg 94%
    08:00 +5°C° 0.9 mm 4 mps 759 mmHg 94%
    09:00 +6°C° 0.9 mm 5 mps 757 mmHg 95%
    10:00 +7°C° 0.9 mm 5 mps 756 mmHg 95%
    11:00 +8°C° 1.2 mm 6 mps 754 mmHg 95%
    12:00 +9°C° 1.2 mm 6 mps 751 mmHg 95%
    13:00 +10°C° 1.2 mm 7 mps 749 mmHg 95%
    14:00 +10°C° 1.3 mm 6 mps 747 mmHg 95%
    15:00 +10°C° 1.3 mm 6 mps 745 mmHg 95%
    16:00 +10°C° 1.3 mm 5 mps 743 mmHg 95%
    17:00 +12°C° 0.4 mm 5 mps 742 mmHg 94%
    18:00 +11°C° 0.4 mm 6 mps 742 mmHg 94%
    19:00 +11°C° 0.4 mm 6 mps 741 mmHg 93%
    20:00 +9°C° 0.1 mm 6 mps 741 mmHg 85%
    21:00 +7°C° 0.1 mm 6 mps 742 mmHg 77%
    22:00 +4°C° 0.1 mm 7 mps 743 mmHg 68%
    23:00 +3°C° 0 mm 7 mps 743 mmHg 69%

    Day after tomorrow, 25 February, Monday

    Time Temperature Precipitation Wind Pressure Humidity
    00:00 +3°C° 0 mm 7 mps 743 mmHg 70%
    01:00 +2°C° 0 mm 6 mps 743 mmHg 71%
    02:00 0°C° 0 mm 7 mps 744 mmHg 69%
    03:00 0°C° 0 mm 7 mps 744 mmHg 67%
    04:00 -1°C° 0 mm 7 mps 744 mmHg 66%
    05:00 -2°C° 0 mm 7 mps 745 mmHg 64%
    06:00 -2°C° 0 mm 7 mps 745 mmHg 62%
    07:00 -4°C° 0 mm 8 mps 746 mmHg 60%
    08:00 -2°C° 0 mm 8 mps 746 mmHg 56%
    09:00 -1°C° 0 mm 9 mps 747 mmHg 53%
    10:00 -2°C° 0 mm 10 mps 747 mmHg 49%
    11:00 -2°C° 0 mm 10 mps 748 mmHg 47%
    12:00 0°C° 0 mm 10 mps 748 mmHg 44%
    13:00 -1°C° 0 mm 11 mps 749 mmHg 42%
    14:00 -2°C° 0 mm 10 mps 750 mmHg 42%
    15:00 -2°C° 0 mm 10 mps 751 mmHg 42%
    16:00 -3°C° 0 mm 10 mps 752 mmHg 42%
    17:00 -4°C° 0 mm 10 mps 754 mmHg 44%
    18:00 -5°C° 0 mm 9 mps 755 mmHg 46%
    19:00 -6°C° 0 mm 9 mps 757 mmHg 47%
    20:00 -7°C° 0 mm 8 mps 758 mmHg 46%
    21:00 -8°C° 0 mm 8 mps 759 mmHg 45%
    22:00 -8°C° 0 mm 8 mps 759 mmHg 43%
    23:00 -10°C° 0 mm 8 mps 760 mmHg 41%

    26 February, Tuesday

    Time Temperature Precipitation Wind Pressure Humidity
    00:00 -9°C° 0 mm 7 mps 761 mmHg 38%
    01:00 -11°C° 0 mm 7 mps 762 mmHg 35%
    02:00 -11°C° 0 mm 7 mps 763 mmHg 35%
    03:00 -12°C° 0 mm 7 mps 763 mmHg 35%
    04:00 -12°C° 0 mm 7 mps 764 mmHg 36%
    05:00 -11°C° 0 mm 6 mps 765 mmHg 36%
    06:00 -11°C° 0 mm 6 mps 766 mmHg 36%
    07:00 -12°C° 0 mm 6 mps 767 mmHg 36%
    08:00 -11°C° 0 mm 6 mps 767 mmHg 33%
    09:00 -11°C° 0 mm 7 mps 768 mmHg 30%
    10:00 -9°C° 0 mm 7 mps 768 mmHg 27%
    11:00 -8°C° 0 mm 7 mps 768 mmHg 25%
    12:00 -8°C° 0 mm 7 mps 768 mmHg 24%
    13:00 -7°C° 0 mm 7 mps 768 mmHg 22%
    14:00 -7°C° 0 mm 7 mps 768 mmHg 23%
    15:00 -8°C° 0 mm 7 mps 768 mmHg 23%
    16:00 -8°C° 0 mm 7 mps 768 mmHg 24%
    17:00 -9°C° 0 mm 6 mps 769 mmHg 26%
    18:00 -10°C° 0 mm 6 mps 770 mmHg 28%
    19:00 -11°C° 0 mm 6 mps 771 mmHg 30%
    20:00 -11°C° 0 mm 5 mps 771 mmHg 31%
    21:00 -11°C° 0 mm 5 mps 772 mmHg 32%
    22:00 -12°C° 0 mm 5 mps 772 mmHg 33%
    23:00 -11°C° 0 mm 4 mps 772 mmHg 34%

    27 February, Wednesday

    Time Temperature Precipitation Wind Pressure Humidity
    00:00 -12°C° 0 mm 4 mps 772 mmHg 35%
    01:00 -12°C° 0 mm 4 mps 772 mmHg 35%
    02:00 -12°C° 0 mm 3 mps 772 mmHg 36%
    03:00 -12°C° 0 mm 3 mps 772 mmHg 36%
    04:00 -12°C° 0 mm 3 mps 772 mmHg 37%
    05:00 -12°C° 0 mm 2 mps 773 mmHg 37%
    06:00 -12°C° 0 mm 2 mps 773 mmHg 37%
    07:00 -10°C° 0 mm 1 mps 773 mmHg 37%
    08:00 -8°C° 0 mm 1 mps 773 mmHg 31%
    09:00 -6°C° 0 mm 1 mps 773 mmHg 26%
    10:00 -4°C° 0 mm 1 mps 772 mmHg 21%
    11:00 -2°C° 0 mm 1 mps 772 mmHg 20%
    12:00 -1°C° 0 mm 1 mps 771 mmHg 19%
    13:00 -2°C° 0 mm 2 mps 770 mmHg 18%
    14:00 -2°C° 0 mm 2 mps 768 mmHg 23%
    15:00 -2°C° 0 mm 3 mps 767 mmHg 27%
    16:00 -3°C° 0 mm 4 mps 766 mmHg 32%
    17:00 -4°C° 0 mm 4 mps 765 mmHg 42%
    18:00 -4°C° 0 mm 4 mps 764 mmHg 51%
    19:00 -4°C° 0 mm 4 mps 763 mmHg 61%
    20:00 -2°C° 0.5 mm 3 mps 762 mmHg 71%
    21:00 -1°C° 0.5 mm 2 mps 760 mmHg 81%
    22:00 +1°C° 0.5 mm 2 mps 758 mmHg 91%
    23:00 +2°C° 0.4 mm 2 mps 757 mmHg 92%

    28 February, Thursday

    Time Temperature Precipitation Wind Pressure Humidity
    00:00 +2°C° 0.4 mm 3 mps 756 mmHg 94%
    01:00 +3°C° 0.4 mm 3 mps 755 mmHg 95%
    02:00 +3°C° 0 mm 3 mps 755 mmHg 94%
    03:00 +2°C° 0 mm 3 mps 755 mmHg 93%
    04:00 +2°C° 0 mm 3 mps 755 mmHg 93%
    05:00 +1°C° 0 mm 3 mps 756 mmHg 86%
    06:00 -1°C° 0 mm 3 mps 757 mmHg 79%
    07:00 -2°C° 0 mm 3 mps 758 mmHg 72%
    08:00 -2°C° 0 mm 4 mps 759 mmHg 65%
    09:00 -1°C° 0 mm 4 mps 759 mmHg 58%
    10:00 0°C° 0 mm 5 mps 760 mmHg 51%
    11:00 +1°C° 0 mm 4 mps 760 mmHg 48%
    12:00 +3°C° 0 mm 4 mps 760 mmHg 45%
    13:00 +3°C° 0 mm 4 mps 760 mmHg 42%
    14:00 +3°C° 0 mm 4 mps 761 mmHg 43%
    15:00 +3°C° 0 mm 3 mps 761 mmHg 43%
    16:00 +3°C° 0 mm 3 mps 761 mmHg 43%
    17:00 +1°C° 0 mm 3 mps 762 mmHg 50%
    18:00 -1°C° 0 mm 2 mps 763 mmHg 57%
    19:00 -3°C° 0 mm 2 mps 764 mmHg 64%
    20:00 -1°C° 0 mm 1 mps 764 mmHg 65%
    21:00 -1°C° 0 mm 1 mps 764 mmHg 67%
    22:00 -2°C° 0 mm 1 mps 765 mmHg 69%
    23:00 -2°C° 0 mm 1 mps 765 mmHg 69%
    Show more